User: anonymous   Login
Location: Unspecified
(0.0000°N, 0.0000°E)
Time: 04:10:05
(UTC+00:00)
Language:

GSAT 7 - Orbit

View from above orbital plane
View from above orbital plane
View from above satellite
View from above satellite

Ground track
Ground track

The orbit data is extracted from the following two-line orbital elements,

1 39234U 13044B   18292.71602030 -.00000084  00000-0  00000+0 0  9996
2 39234   0.0621 104.1946 0008975 150.5862 105.1498  1.00272075 18857
Epoch (UTC): 19 October 2018 17:11:04
Eccentricity: 0.0008975
inclination: 0.0621°
perigee height: 35748 km
apogee height: 35824 km
right ascension of ascending node: 104.1946°
argument of perigee: 150.5862°
revolutions per day: 1.00272075
mean anomaly at epoch: 105.1498°
orbit number at epoch: 1885

The dashed part of the orbit path shows where the satellite is in the earth's shadow,  

DLR